DLH8NE EDDV-EDDF

Flight info

Callsign DLH8NE
Flight time 0h 37m
Altitude 19000
Route EDDV/09R NORTA1G NORTA P12 TOLTA T154 ROBAR T152 KERAX KERAX5A
Aircraft A319/M-SDE3FGHIRWY/LB1

Departure

Time 2026-05-07 16:20
Airport Hannover Airport (EDDV)

Arrival

Time 2026-05-07 16:57
Airport Frankfurt Main Airport (EDDF)
Time Latitude Longitude Altitude Speed Heading
2026-05-07 15:45 52.45843 9.69320 179 ft 0 kts 47°
2026-05-07 16:11 52.45837 9.69310 179 ft 3 kts 48°
2026-05-07 16:12 52.45824 9.69284 179 ft 3 kts 50°
2026-05-07 16:12 52.45809 9.69257 178 ft 3 kts 41°
2026-05-07 16:12 52.45794 9.69240 178 ft 3 kts 359°
2026-05-07 16:12 52.45786 9.69241 178 ft 0 kts 332°
2026-05-07 16:15 52.45787 9.69241 178 ft 0 kts 332°
2026-05-07 16:16 52.45796 9.69228 178 ft 4 kts 319°
2026-05-07 16:16 52.45831 9.69179 178 ft 9 kts 319°
2026-05-07 16:16 52.45836 9.69080 178 ft 11 kts 226°
2026-05-07 16:16 52.45772 9.69106 178 ft 11 kts 142°
2026-05-07 16:17 52.45704 9.69148 178 ft 11 kts 181°
2026-05-07 16:17 52.45630 9.69120 179 ft 11 kts 227°
2026-05-07 16:17 52.45626 9.68995 179 ft 11 kts 273°
2026-05-07 16:17 52.45629 9.68857 179 ft 14 kts 272°
2026-05-07 16:18 52.45634 9.68674 179 ft 17 kts 272°
2026-05-07 16:18 52.45640 9.68477 179 ft 18 kts 272°
2026-05-07 16:18 52.45646 9.68276 179 ft 18 kts 272°
2026-05-07 16:18 52.45651 9.68069 179 ft 18 kts 272°
2026-05-07 16:19 52.45657 9.67858 179 ft 19 kts 273°
2026-05-07 16:19 52.45589 9.67704 179 ft 18 kts 190°
2026-05-07 16:19 52.45497 9.67782 183 ft 16 kts 109°
2026-05-07 16:19 52.45489 9.67974 183 ft 22 kts 92°
2026-05-07 16:20 52.45471 9.68675 182 ft 100 kts 92°
2026-05-07 16:20 52.45429 9.70162 305 ft 147 kts 92°
2026-05-07 16:20 52.45377 9.71817 1022 ft 145 kts 92°
2026-05-07 16:20 52.45329 9.73480 1685 ft 152 kts 92°
2026-05-07 16:21 52.45279 9.75303 2095 ft 173 kts 92°
2026-05-07 16:21 52.45222 9.77411 2505 ft 197 kts 91°
2026-05-07 16:21 52.45159 9.79760 3309 ft 209 kts 91°
2026-05-07 16:21 52.45094 9.82143 4397 ft 212 kts 91°
2026-05-07 16:22 52.45026 9.84547 5491 ft 211 kts 91°
2026-05-07 16:22 52.44951 9.86976 6470 ft 215 kts 93°
2026-05-07 16:22 52.44466 9.89318 7282 ft 225 kts 126°
2026-05-07 16:22 52.43205 9.90885 8051 ft 236 kts 154°
2026-05-07 16:23 52.41678 9.91925 8290 ft 237 kts 162°
2026-05-07 16:23 52.40041 9.92307 8557 ft 246 kts 180°
2026-05-07 16:23 52.38236 9.91920 8826 ft 275 kts 189°
2026-05-07 16:23 52.36309 9.91378 9047 ft 284 kts 189°
2026-05-07 16:24 52.34349 9.90847 9108 ft 287 kts 189°
2026-05-07 16:24 52.32374 9.90327 9110 ft 288 kts 188°
2026-05-07 16:24 52.30393 9.89811 9104 ft 289 kts 188°
2026-05-07 16:24 52.28406 9.89290 9112 ft 289 kts 188°
2026-05-07 16:25 52.26422 9.88771 9111 ft 288 kts 188°
2026-05-07 16:25 52.24442 9.88261 9109 ft 289 kts 187°
2026-05-07 16:25 52.22454 9.87826 9108 ft 288 kts 186°
2026-05-07 16:25 52.20461 9.87443 9144 ft 290 kts 186°
2026-05-07 16:26 52.18446 9.87074 10025 ft 292 kts 186°
2026-05-07 16:26 52.16375 9.86692 10538 ft 312 kts 186°
2026-05-07 16:26 52.14139 9.86276 10842 ft 335 kts 186°
2026-05-07 16:26 52.12569 9.85980 11039 ft 350 kts 187°
2026-05-07 16:27 52.09276 9.85344 11891 ft 361 kts 187°
2026-05-07 16:27 52.06760 9.84850 12621 ft 366 kts 187°
2026-05-07 16:27 52.04216 9.84356 13392 ft 371 kts 187°
2026-05-07 16:27 52.01637 9.83855 14078 ft 376 kts 187°
2026-05-07 16:28 51.99026 9.83343 14756 ft 380 kts 187°
2026-05-07 16:28 51.96395 9.82827 15445 ft 383 kts 188°
2026-05-07 16:28 51.93739 9.82311 16157 ft 386 kts 188°
2026-05-07 16:28 51.91068 9.81765 16856 ft 388 kts 190°
2026-05-07 16:29 51.88414 9.80632 17081 ft 403 kts 202°
2026-05-07 16:29 51.85869 9.78549 17263 ft 416 kts 214°
2026-05-07 16:29 51.83610 9.75608 17714 ft 419 kts 226°
2026-05-07 16:29 51.81570 9.72222 18298 ft 421 kts 226°
2026-05-07 16:30 51.79512 9.68832 18788 ft 424 kts 226°
2026-05-07 16:30 51.77438 9.65449 19024 ft 424 kts 226°
2026-05-07 16:30 51.75356 9.62064 19083 ft 425 kts 226°
2026-05-07 16:30 51.73278 9.58689 19087 ft 424 kts 226°
2026-05-07 16:31 51.71199 9.55306 19088 ft 424 kts 226°
2026-05-07 16:31 51.69062 9.52024 19081 ft 425 kts 220°
2026-05-07 16:31 51.66647 9.49269 19082 ft 426 kts 212°
2026-05-07 16:31 51.64095 9.46854 19082 ft 426 kts 211°
2026-05-07 16:32 51.61538 9.44439 19082 ft 426 kts 211°
2026-05-07 16:32 51.58983 9.42021 19082 ft 426 kts 211°
2026-05-07 16:32 51.56433 9.39605 19083 ft 426 kts 212°
2026-05-07 16:32 51.53877 9.37185 19080 ft 426 kts 211°
2026-05-07 16:33 51.51358 9.34803 19073 ft 426 kts 211°
2026-05-07 16:33 51.48804 9.32394 19072 ft 426 kts 211°
2026-05-07 16:33 51.46237 9.30030 19071 ft 426 kts 208°
2026-05-07 16:33 51.43496 9.28219 19059 ft 427 kts 199°
2026-05-07 16:34 51.40595 9.27176 19056 ft 429 kts 189°
2026-05-07 16:34 51.37612 9.26931 19053 ft 430 kts 180°
2026-05-07 16:34 51.34622 9.27092 19048 ft 431 kts 179°
2026-05-07 16:34 51.31624 9.27240 19058 ft 431 kts 179°
2026-05-07 16:35 51.28624 9.27377 19060 ft 431 kts 180°
2026-05-07 16:35 51.25629 9.27511 19063 ft 431 kts 179°
2026-05-07 16:35 51.22624 9.27645 19067 ft 432 kts 179°
2026-05-07 16:35 51.19620 9.27779 19065 ft 432 kts 179°
2026-05-07 16:36 51.16621 9.27915 19064 ft 432 kts 180°
2026-05-07 16:36 51.13614 9.28051 19065 ft 433 kts 179°
2026-05-07 16:36 51.10602 9.28187 19068 ft 433 kts 179°
2026-05-07 16:36 51.07593 9.28229 19073 ft 433 kts 181°
2026-05-07 16:37 51.04654 9.28173 19076 ft 433 kts 182°
2026-05-07 16:37 51.01570 9.28053 19078 ft 433 kts 182°
2026-05-07 16:37 50.98556 9.27918 19077 ft 433 kts 183°
2026-05-07 16:37 50.95563 9.28079 19072 ft 423 kts 174°
2026-05-07 16:38 50.92742 9.28974 18984 ft 407 kts 164°
2026-05-07 16:38 50.90146 9.30516 18850 ft 389 kts 155°
2026-05-07 16:38 50.87832 9.32474 18679 ft 366 kts 151°
2026-05-07 16:38 50.85630 9.34407 18378 ft 359 kts 152°
2026-05-07 16:39 50.83451 9.36299 18104 ft 356 kts 152°
2026-05-07 16:39 50.81284 9.38173 17825 ft 354 kts 152°
2026-05-07 16:39 50.79130 9.40032 17560 ft 349 kts 152°
2026-05-07 16:39 50.77017 9.41863 17284 ft 343 kts 152°
2026-05-07 16:40 50.74934 9.43673 16924 ft 341 kts 152°
2026-05-07 16:40 50.72865 9.45470 16621 ft 336 kts 152°
2026-05-07 16:40 50.70851 9.47214 16345 ft 326 kts 152°
2026-05-07 16:40 50.68881 9.48917 15836 ft 321 kts 152°
2026-05-07 16:41 50.67586 9.50033 15456 ft 320 kts 152°
2026-05-07 16:41 50.65637 9.51711 14901 ft 318 kts 152°
2026-05-07 16:41 50.63697 9.53382 14452 ft 317 kts 152°
2026-05-07 16:41 50.61754 9.55057 14024 ft 320 kts 152°
2026-05-07 16:42 50.59714 9.56465 13617 ft 319 kts 163°
2026-05-07 16:42 50.57579 9.57280 13188 ft 318 kts 172°
2026-05-07 16:42 50.55375 9.57538 12875 ft 313 kts 179°
2026-05-07 16:42 50.53222 9.57691 12635 ft 307 kts 180°
2026-05-07 16:43 50.51118 9.57323 12267 ft 304 kts 196°
2026-05-07 16:43 50.49180 9.56058 11883 ft 301 kts 213°
2026-05-07 16:43 50.47560 9.54017 11489 ft 298 kts 229°
2026-05-07 16:43 50.46371 9.51396 11117 ft 294 kts 244°
2026-05-07 16:44 50.45661 9.48421 10746 ft 289 kts 256°
2026-05-07 16:44 50.45100 9.45404 10375 ft 287 kts 255°
2026-05-07 16:44 50.44531 9.42398 10012 ft 286 kts 255°
2026-05-07 16:44 50.43963 9.39412 9622 ft 286 kts 255°
2026-05-07 16:45 50.43396 9.36431 9216 ft 285 kts 255°
2026-05-07 16:45 50.42539 9.33650 8816 ft 286 kts 232°
2026-05-07 16:45 50.41030 9.31629 8429 ft 287 kts 216°
2026-05-07 16:45 50.39366 9.29923 8041 ft 285 kts 214°
2026-05-07 16:46 50.37695 9.28268 7656 ft 283 kts 214°
2026-05-07 16:46 50.36014 9.26670 7288 ft 282 kts 212°
2026-05-07 16:46 50.34322 9.25177 7046 ft 276 kts 211°
2026-05-07 16:46 50.32650 9.23748 6788 ft 271 kts 210°
2026-05-07 16:47 50.31010 9.22363 6533 ft 265 kts 210°
2026-05-07 16:47 50.29409 9.21009 6322 ft 257 kts 211°
2026-05-07 16:47 50.27877 9.19704 6209 ft 245 kts 211°
2026-05-07 16:47 50.26404 9.18446 6099 ft 240 kts 211°
2026-05-07 16:48 50.24943 9.17198 5996 ft 239 kts 211°
2026-05-07 16:48 50.23490 9.15954 5891 ft 238 kts 211°
2026-05-07 16:48 50.22037 9.14709 5787 ft 238 kts 211°
2026-05-07 16:48 50.20584 9.13461 5686 ft 238 kts 211°
2026-05-07 16:49 50.19251 9.11964 5579 ft 236 kts 225°
2026-05-07 16:49 50.18201 9.10071 5478 ft 233 kts 238°
2026-05-07 16:49 50.17438 9.07820 5375 ft 232 kts 249°
2026-05-07 16:49 50.16864 9.05471 5271 ft 231 kts 252°
2026-05-07 16:50 50.16321 9.03115 5172 ft 231 kts 252°
2026-05-07 16:50 50.15775 9.00765 5069 ft 231 kts 252°
2026-05-07 16:50 50.15226 8.98417 5007 ft 230 kts 252°
2026-05-07 16:50 50.14678 8.96073 5010 ft 230 kts 252°
2026-05-07 16:51 50.14129 8.93732 5010 ft 228 kts 252°
2026-05-07 16:51 50.13601 8.91484 5006 ft 212 kts 252°
2026-05-07 16:51 50.13112 8.89402 5002 ft 199 kts 252°
2026-05-07 16:51 50.12645 8.87412 5011 ft 193 kts 252°
2026-05-07 16:52 50.12182 8.85441 4965 ft 195 kts 252°
2026-05-07 16:52 50.11719 8.83475 4714 ft 192 kts 252°
2026-05-07 16:52 50.11259 8.81521 4442 ft 192 kts 252°
2026-05-07 16:52 50.10799 8.79570 4167 ft 192 kts 252°
2026-05-07 16:53 50.10340 8.77624 3890 ft 192 kts 252°
2026-05-07 16:53 50.09878 8.75672 3612 ft 192 kts 252°
2026-05-07 16:53 50.09416 8.73718 3337 ft 192 kts 252°
2026-05-07 16:53 50.08955 8.71766 3057 ft 192 kts 251°
2026-05-07 16:54 50.08492 8.69814 2780 ft 192 kts 251°
2026-05-07 16:54 50.08031 8.67871 2500 ft 192 kts 251°
2026-05-07 16:54 50.07576 8.65954 2214 ft 183 kts 251°
2026-05-07 16:54 50.07152 8.64170 1971 ft 166 kts 251°
2026-05-07 16:55 50.06770 8.62565 1733 ft 151 kts 253°
2026-05-07 16:55 50.06420 8.61093 1511 ft 141 kts 252°
2026-05-07 16:55 50.06084 8.59679 1314 ft 137 kts 251°
2026-05-07 16:55 50.05754 8.58299 1103 ft 134 kts 250°
2026-05-07 16:56 50.05444 8.56946 896 ft 131 kts 251°
2026-05-07 16:56 50.05132 8.55632 689 ft 128 kts 249°
2026-05-07 16:56 50.04497 8.53016 368 ft 127 kts 247°
2026-05-07 16:57 50.04244 8.51952 337 ft 72 kts 249°
2026-05-07 16:57 50.04090 8.51315 329 ft 54 kts 249°
2026-05-07 16:57 50.03924 8.50943 327 ft 26 kts 221°
2026-05-07 16:57 50.03808 8.50837 332 ft 15 kts 165°
2026-05-07 16:58 50.03792 8.50970 335 ft 15 kts 71°
2026-05-07 16:58 50.03832 8.51138 335 ft 19 kts 69°
2026-05-07 16:58 50.03883 8.51349 333 ft 23 kts 70°
2026-05-07 16:58 50.03945 8.51610 336 ft 28 kts 69°
2026-05-07 16:59 50.04015 8.51901 335 ft 29 kts 69°
2026-05-07 16:59 50.04083 8.52186 346 ft 28 kts 70°
2026-05-07 16:59 50.04154 8.52482 352 ft 31 kts 70°
2026-05-07 16:59 50.04232 8.52807 353 ft 33 kts 69°
2026-05-07 17:00 50.04311 8.53138 357 ft 32 kts 70°
2026-05-07 17:00 50.04383 8.53438 373 ft 27 kts 70°
2026-05-07 17:00 50.04409 8.53727 375 ft 27 kts 84°
2026-05-07 17:00 50.04429 8.54024 375 ft 28 kts 84°
2026-05-07 17:01 50.04449 8.54324 374 ft 28 kts 84°
2026-05-07 17:01 50.04413 8.54636 364 ft 31 kts 123°
2026-05-07 17:01 50.04235 8.54816 354 ft 30 kts 161°
2026-05-07 17:01 50.04053 8.54920 354 ft 24 kts 159°
2026-05-07 17:02 50.03904 8.55008 350 ft 23 kts 159°
2026-05-07 17:02 50.03858 8.55155 356 ft 18 kts 69°
2026-05-07 17:02 50.03903 8.55342 353 ft 18 kts 70°
2026-05-07 17:02 50.03943 8.55511 357 ft 16 kts 70°
2026-05-07 17:03 50.03982 8.55673 351 ft 17 kts 69°
2026-05-07 17:03 50.04025 8.55853 359 ft 18 kts 70°
2026-05-07 17:03 50.04077 8.55970 354 ft 11 kts
2026-05-07 17:03 50.04143 8.55943 359 ft 8 kts 340°
2026-05-07 17:04 50.04166 8.55930 355 ft 0 kts 340°
2026-05-07 17:04 50.04174 8.55925 356 ft 4 kts 340°
2026-05-07 17:04 50.04223 8.55921 353 ft 10 kts 21°
2026-05-07 17:05 50.04304 8.55952 358 ft 15 kts 342°
2026-05-07 17:05 50.04415 8.55908 357 ft 18 kts
2026-05-07 17:05 50.04529 8.55958 360 ft 16 kts 18°
2026-05-07 17:05 50.04582 8.56082 356 ft 13 kts 70°
2026-05-07 17:06 50.04612 8.56207 357 ft 12 kts 70°
2026-05-07 17:06 50.04643 8.56335 356 ft 13 kts 69°
2026-05-07 17:06 50.04675 8.56472 362 ft 14 kts 70°
2026-05-07 17:06 50.04721 8.56586 356 ft 10 kts 53°
2026-05-07 17:07 50.04768 8.56607 356 ft 7 kts 340°
2026-05-07 17:07 50.04801 8.56588 357 ft 3 kts 340°
2026-05-07 17:07 50.04808 8.56584 356 ft 0 kts 340°